GLOBALSTAR M096 [+]

Last updated on Fri Dec 29 2023 00:02:57 GMT+0000 (Coordinated Universal Time)

1 39075U 13005D 23362.16399700 -.00000080 00000+0 13143-3 0 9997 2 39075 52.0086 65.2898 0000842 136.8506 223.2427 12.62267278503821

Satellite not in orbit

GLOBALSTAR M096 [+]